Location: Unspecified
(0.0000°N, 0.0000°E)
Time: 15:32:51
(UTC+00:00)

Vanguard 3 - Visible Passes

Search period start: 12 April 2021 00:00
Search period end: 22 April 2021 00:00
Orbit: 508 x 3262 km, 33.3° (Epoch: 11 April)

Date Brightness Start Highest point End Pass type
(mag) Time Alt. Az. Time Alt. Az. Time Alt. Az.
12 Apr 10.6 18:38:47 10° SSW 18:47:00 15° S 18:53:48 10° SSE visible
12 Apr 10.4 20:56:10 10° SSW 21:01:20 19° S 21:01:20 19° S visible
13 Apr 10.2 19:39:04 10° SSW 19:48:56 19° SSE 19:51:28 18° SSE visible
13 Apr 10.8 21:54:39 10° SW 21:56:01 13° SW 21:56:01 13° SW visible
14 Apr 10.6 18:20:44 10° SSW 18:30:53 17° S 18:39:05 10° SE visible
14 Apr 10.1 20:37:55 10° SSW 20:46:12 27° S 20:46:12 27° S visible
15 Apr 10.0 19:20:41 10° SSW 19:32:44 24° SSE 19:36:27 21° SE visible
15 Apr 10.5 21:36:47 10° SW 21:41:01 21° SW 21:41:01 21° SW visible
16 Apr 10.5 18:02:44 10° SSW 18:14:40 20° S 18:24:08 10° SE visible
16 Apr 9.7 20:19:42 10° SW 20:31:19 36° S 20:31:19 36° S visible
17 Apr 9.9 19:02:24 10° SSW 19:16:24 28° SSE 19:21:43 22° SE visible
17 Apr 10.0 21:18:55 10° SW 21:26:18 32° SW 21:26:18 32° SW visible
18 Apr 9.3 20:01:32 10° SW 20:16:46 46° SSE 20:16:46 46° SSE visible
18 Apr 10.8 22:19:06 10° WSW 22:21:23 16° WSW 22:21:23 16° WSW visible
19 Apr 9.9 18:44:12 10° SW 18:59:53 34° SSE 19:07:20 20° ESE visible
19 Apr 9.5 21:01:04 10° SW 21:11:56 49° SW 21:11:56 49° SW visible
20 Apr 9.1 19:43:25 10° SW 20:00:13 55° SSE 20:02:36 50° ESE visible
20 Apr 10.4 22:01:44 10° WSW 22:07:13 25° WSW 22:07:13 25° WSW visible
21 Apr 10.0 18:26:03 10° SW 18:43:12 40° SSE 18:53:21 15° E visible
21 Apr 9.0 20:43:14 10° SW 20:57:59 75° WSW 20:57:59 75° WSW visible
